Location: Rounton
(54.4000°N, 1.3500°W)
Time: 04:39:41
(UTC+00:00)

A-11 Canister half - Pass Details

Date: 03 December 2021
Orbit: 1516 x 1684 km, 47.2° (Epoch: 21 January)

Event Time Altitude Azimuth Distance (km) Brightness Sun altitude
Rises 05:35:33 0° 183° (S) 4,750 11.7 -20.6°
Reaches altitude 10° 05:40:02 10° 165° (SSE) 3,802 11.4 -20.0°
Maximum altitude 05:45:36 17° 129° (SE) 3,313 11.6 -19.2°
Drops below altitude 10° 05:51:15 10° 93° (E) 3,888 12.3 -18.4°
Sets 05:55:53 0° 75° (ENE) 4,905 12.8 -17.7°
